Find Starlink 36540

NORAD ID: 67511 Int'l Des: 2026-012 Owner: SPXS Country: US Constellation: starlink operational
LEOCIRCULAR

現在のビュー

3D地球を読み込み中...

Starlink 36540について

説明を読み込み中...

次回通過

Passes for default location (London). Set your location on the main map for personalized predictions.

高度履歴

Loading altitude history...

軌道要素

1 67511U 26012U 26146.59956528 .00014950 00000-0 55140-3 0 9996
2 67511 42.9986 234.7280 0001518 269.1774 90.8903 15.27597026 19673
Epoch: May 26, 2026 • Age: 6 hours

現在のステータス

高度 483.1 km
速度 7.63 km/s
衛星直下点 -2.93°S, 35.98°E
打ち上げ日 Jan 18, 2026
運用期間 0.3 years
タイプ internet

技術仕様

分類 Payload
質量 575.00 kg
乾燥質量 530.00 kg
総質量 575.00 kg
長さ 0.30 m
直径 4.10 m
スパン 29.00 m
形状 Box + pan
製造者 SPXS
バスタイプ Starlink V2MO
フェーズステータス In Orbit
所有者/国 SPXS/US

Most Searched